Location: Aalen
(48.8330°N, 10.1000°E)
Time: 20:35:15
(UTC+02:00)

CAS-6 - Pass Details

Date: 29 March 2023
Orbit: 610 x 632 km, 97.9° (Epoch: 04 June)

Event Time Altitude Azimuth Distance (km) Brightness Sun altitude
Exits shadow 22:43:15 24° 28° (NNE) 1,302 ? -27.1°
Drops below altitude 10° 22:45:29 10° 5° (N) 2,005 ? -27.3°
Sets 22:47:52 0° 355° (N) 2,920 ? -27.6°
